Zurück zum Katalog

STARLINK-2160

AktivKommunikationVLEO
NORAD 47746·PAYLOAD·🇺🇸 United States

Gestartet Mar 4, 2021 von Cape Canaveral Space Force Station

Loading…

Nächste Überflüge (nächste 24 Stunden)

TLE

AktuellSource: CelesTrak SupGP

Epoche: Sep 14, 2026, 21:37 UTC

1 47746C 21017AA  26257.90118056  .00092286  00000+0  54678-3 0  2577
2 47746  53.1536  17.0635 0005668 337.0920 351.3882 15.77305131    18

Verfolge STARLINK-2160 in Echtzeit mit AllMySat

Download on the App Store